• In Hungary
  • List of Countries
  • For 7 days
  • Water Temperature
  • Satellite Maps
  • Weather Map
  • News
  • Weather Widgets
  • user-avatar
    Login

    Hourly Weather Angir

    Today, 21 February, Wednesday

    Time Temperature Precipitation Wind Pressure Humidity
    00:00 -18°C° 0 mm 3 mps 707 mmHg 85%
    01:00 -17°C° 0 mm 3 mps 707 mmHg 84%
    02:00 -17°C° 0 mm 3 mps 707 mmHg 85%
    03:00 -17°C° 0 mm 3 mps 707 mmHg 86%
    04:00 -17°C° 0 mm 3 mps 707 mmHg 87%
    05:00 -17°C° 0.1 mm 3 mps 707 mmHg 87%
    06:00 -17°C° 0.1 mm 3 mps 707 mmHg 88%
    07:00 -17°C° 0.1 mm 3 mps 707 mmHg 88%
    08:00 -16°C° 0.1 mm 3 mps 707 mmHg 86%
    09:00 -14°C° 0.1 mm 3 mps 707 mmHg 83%
    10:00 -13°C° 0.1 mm 3 mps 706 mmHg 81%
    11:00 -12°C° 0.1 mm 4 mps 706 mmHg 78%
    12:00 -12°C° 0.1 mm 4 mps 706 mmHg 76%
    13:00 -12°C° 0 mm 5 mps 706 mmHg 72%
    14:00 -11°C° 0.1 mm 4 mps 705 mmHg 74%
    15:00 -11°C° 0.1 mm 4 mps 705 mmHg 75%
    16:00 -12°C° 0.1 mm 3 mps 705 mmHg 76%
    17:00 -13°C° 0.1 mm 3 mps 705 mmHg 79%
    18:00 -14°C° 0.1 mm 3 mps 705 mmHg 82%
    19:00 -14°C° 0.1 mm 2 mps 705 mmHg 85%
    20:00 -14°C° 0 mm 2 mps 704 mmHg 86%
    21:00 -15°C° 0 mm 2 mps 704 mmHg 87%
    22:00 -13°C° 0 mm 1 mps 704 mmHg 89%
    23:00 -13°C° 0.1 mm 1 mps 704 mmHg 90%

    Tomorrow, 22 February, Thursday

    Time Temperature Precipitation Wind Pressure Humidity
    00:00 -14°C° 0.1 mm 1 mps 703 mmHg 91%
    01:00 -14°C° 0.1 mm 1 mps 703 mmHg 92%
    02:00 -14°C° 0.1 mm 1 mps 703 mmHg 92%
    03:00 -15°C° 0.1 mm 1 mps 703 mmHg 93%
    04:00 -15°C° 0.1 mm 1 mps 703 mmHg 93%
    05:00 -15°C° 0.1 mm 1 mps 703 mmHg 93%
    06:00 -16°C° 0.1 mm 1 mps 703 mmHg 94%
    07:00 -16°C° 0.1 mm 1 mps 703 mmHg 94%
    08:00 -15°C° 0.1 mm 1 mps 703 mmHg 91%
    09:00 -13°C° 0.1 mm 1 mps 703 mmHg 87%
    10:00 -14°C° 0.1 mm 2 mps 703 mmHg 84%
    11:00 -14°C° 0.1 mm 2 mps 703 mmHg 81%
    12:00 -13°C° 0.1 mm 2 mps 703 mmHg 79%
    13:00 -13°C° 0.1 mm 3 mps 703 mmHg 76%
    14:00 -14°C° 0.1 mm 3 mps 703 mmHg 76%
    15:00 -14°C° 0.1 mm 3 mps 703 mmHg 76%
    16:00 -14°C° 0.1 mm 3 mps 703 mmHg 77%
    17:00 -15°C° 0 mm 2 mps 703 mmHg 80%
    18:00 -17°C° 0 mm 2 mps 704 mmHg 83%
    19:00 -17°C° 0 mm 1 mps 704 mmHg 87%
    20:00 -17°C° 0 mm 1 mps 705 mmHg 88%
    21:00 -18°C° 0 mm 1 mps 705 mmHg 89%
    22:00 -19°C° 0 mm 1 mps 706 mmHg 90%
    23:00 -19°C° 0 mm 1 mps 706 mmHg 91%

    Day after tomorrow, 23 February, Friday

    Time Temperature Precipitation Wind Pressure Humidity
    00:00 -20°C° 0 mm 1 mps 706 mmHg 91%
    01:00 -21°C° 0 mm 1 mps 706 mmHg 92%
    02:00 -21°C° 0 mm 1 mps 706 mmHg 92%
    03:00 -21°C° 0 mm 1 mps 706 mmHg 91%
    04:00 -22°C° 0 mm 1 mps 706 mmHg 91%
    05:00 -22°C° 0 mm 1 mps 707 mmHg 91%
    06:00 -22°C° 0 mm 1 mps 707 mmHg 91%
    07:00 -22°C° 0 mm 1 mps 707 mmHg 91%
    08:00 -23°C° 0 mm 2 mps 707 mmHg 89%
    09:00 -20°C° 0 mm 2 mps 707 mmHg 86%
    10:00 -18°C° 0 mm 2 mps 707 mmHg 84%
    11:00 -16°C° 0 mm 2 mps 707 mmHg 82%
    12:00 -15°C° 0 mm 2 mps 707 mmHg 80%
    13:00 -13°C° 0 mm 2 mps 706 mmHg 78%
    14:00 -13°C° 0 mm 2 mps 706 mmHg 80%
    15:00 -13°C° 0 mm 2 mps 706 mmHg 81%
    16:00 -13°C° 0 mm 2 mps 706 mmHg 83%
    17:00 -15°C° 0 mm 2 mps 706 mmHg 86%
    18:00 -15°C° 0 mm 1 mps 706 mmHg 88%
    19:00 -16°C° 0 mm 1 mps 706 mmHg 91%
    20:00 -17°C° 0 mm 1 mps 707 mmHg 91%
    21:00 -17°C° 0 mm 1 mps 707 mmHg 90%
    22:00 -17°C° 0 mm 1 mps 707 mmHg 89%
    23:00 -16°C° 0 mm 1 mps 707 mmHg 90%

    24 February, Saturday

    Time Temperature Precipitation Wind Pressure Humidity
    00:00 -16°C° 0 mm 1 mps 707 mmHg 90%
    01:00 -16°C° 0 mm 1 mps 707 mmHg 90%
    02:00 -16°C° 0 mm 1 mps 707 mmHg 91%
    03:00 -15°C° 0 mm 1 mps 707 mmHg 92%
    04:00 -15°C° 0 mm 1 mps 707 mmHg 92%
    05:00 -15°C° 0 mm 1 mps 707 mmHg 93%
    06:00 -16°C° 0 mm 1 mps 707 mmHg 93%
    07:00 -16°C° 0 mm 1 mps 707 mmHg 93%
    08:00 -14°C° 0 mm 1 mps 707 mmHg 90%
    09:00 -12°C° 0 mm 1 mps 707 mmHg 87%
    10:00 -11°C° 0 mm 1 mps 707 mmHg 84%
    11:00 -10°C° 0 mm 1 mps 707 mmHg 82%
    12:00 -8°C° 0 mm 1 mps 706 mmHg 80%
    13:00 -7°C° 0 mm 1 mps 706 mmHg 78%
    14:00 -7°C° 0 mm 1 mps 706 mmHg 80%
    15:00 -7°C° 0 mm 1 mps 705 mmHg 82%
    16:00 -8°C° 0 mm 1 mps 705 mmHg 84%
    17:00 -10°C° 0 mm 1 mps 705 mmHg 87%
    18:00 -12°C° 0 mm 1 mps 705 mmHg 91%
    19:00 -14°C° 0 mm 1 mps 705 mmHg 94%
    20:00 -14°C° 0 mm 1 mps 705 mmHg 93%
    21:00 -15°C° 0 mm 1 mps 705 mmHg 93%
    22:00 -15°C° 0 mm 1 mps 705 mmHg 92%
    23:00 -15°C° 0 mm 1 mps 705 mmHg 92%

    25 February, Sunday

    Time Temperature Precipitation Wind Pressure Humidity
    00:00 -15°C° 0 mm 1 mps 705 mmHg 93%
    01:00 -15°C° 0 mm 1 mps 704 mmHg 93%
    02:00 -16°C° 0 mm 1 mps 704 mmHg 93%
    03:00 -16°C° 0 mm 1 mps 704 mmHg 94%
    04:00 -16°C° 0 mm 1 mps 703 mmHg 94%
    05:00 -16°C° 0 mm 1 mps 703 mmHg 95%
    06:00 -16°C° 0 mm 1 mps 703 mmHg 95%
    07:00 -17°C° 0 mm 1 mps 703 mmHg 95%
    08:00 -15°C° 0 mm 1 mps 703 mmHg 91%
    09:00 -13°C° 0 mm 1 mps 703 mmHg 88%
    10:00 -11°C° 0 mm 1 mps 703 mmHg 84%
    11:00 -10°C° 0 mm 1 mps 703 mmHg 83%
    12:00 -9°C° 0 mm 1 mps 702 mmHg 82%
    13:00 -8°C° 0 mm 1 mps 702 mmHg 81%
    14:00 -8°C° 0.2 mm 1 mps 702 mmHg 84%
    15:00 -8°C° 0.2 mm 1 mps 702 mmHg 87%
    16:00 -9°C° 0.2 mm 2 mps 702 mmHg 90%
    17:00 -9°C° 0.3 mm 2 mps 703 mmHg 91%
    18:00 -9°C° 0.3 mm 2 mps 703 mmHg 92%
    19:00 -10°C° 0.3 mm 2 mps 704 mmHg 93%
    20:00 -10°C° 0.1 mm 2 mps 704 mmHg 93%
    21:00 -12°C° 0.1 mm 3 mps 705 mmHg 92%
    22:00 -13°C° 0.1 mm 3 mps 705 mmHg 91%
    23:00 -13°C° 0.1 mm 3 mps 706 mmHg 91%

    26 February, Monday

    Time Temperature Precipitation Wind Pressure Humidity
    00:00 -13°C° 0.1 mm 3 mps 706 mmHg 91%
    01:00 -13°C° 0.1 mm 3 mps 707 mmHg 91%
    02:00 -13°C° 0.1 mm 3 mps 707 mmHg 90%
    03:00 -13°C° 0.1 mm 3 mps 708 mmHg 90%
    04:00 -13°C° 0.1 mm 3 mps 708 mmHg 90%
    05:00 -14°C° 0.1 mm 3 mps 708 mmHg 90%
    06:00 -14°C° 0.1 mm 2 mps 709 mmHg 90%
    07:00 -14°C° 0.1 mm 2 mps 709 mmHg 90%
    08:00 -14°C° 0 mm 2 mps 710 mmHg 86%
    09:00 -13°C° 0 mm 2 mps 710 mmHg 83%
    10:00 -12°C° 0 mm 2 mps 710 mmHg 79%
    11:00 -12°C° 0.1 mm 2 mps 710 mmHg 78%
    12:00 -12°C° 0.1 mm 2 mps 710 mmHg 78%
    13:00 -10°C° 0.1 mm 2 mps 709 mmHg 77%
    14:00 -12°C° 0.1 mm 2 mps 709 mmHg 79%
    15:00 -12°C° 0.1 mm 2 mps 709 mmHg 81%
    16:00 -12°C° 0.1 mm 2 mps 709 mmHg 83%
    17:00 -14°C° 0 mm 2 mps 709 mmHg 85%
    18:00 -15°C° 0 mm 2 mps 710 mmHg 88%
    19:00 -15°C° 0 mm 1 mps 710 mmHg 90%
    20:00 -15°C° 0 mm 1 mps 710 mmHg 90%
    21:00 -16°C° 0 mm 1 mps 710 mmHg 91%
    22:00 -16°C° 0 mm 1 mps 710 mmHg 91%
    23:00 -17°C° 0 mm 1 mps 710 mmHg 91%
    Show more